Regional Weather Roundup
Issued by NWS

Home | Current Version | Previous Version | Graphics & Text | Print | Product List | Glossary On
Versions: 1 2 3 4 5 6 7 8 9 10 11 12 13 14 15 16 17 18 19 20 21 22 23 24 25 26 27 28 29 30 31 32 33 34 35 36 37 38 39 40 41 42 43 44 45 46 47 48 49 50
000
ASUS43 KDMX 251301
RWRIA

WEATHER ROUNDUP FOR IOWA
NATIONAL WEATHER SERVICE DES MOINES IA
800 AM CDT TUE JUL 25 2017

NOTE: "FAIR" INDICATES FEW OR NO CLOUDS BELOW 12,000 FEET WITH NO
SIGNIFICANT WEATHER AND/OR OBSTRUCTIONS TO VISIBILITY.

* - THESE STATIONS ARE NOT NWS STATIONS...THUS NOT UNDER NWS
QUALITY CONTROL.  THEY ALSO DO NOT REPORT WEATHER SUCH
AS PRECIPITATION OR FOG.

IAZ001>003-012>014-020>022-031>034-043>046-251400-
   NORTHWEST IOWA

CITY           SKY/WX    TMP DP  RH WIND       PRES   REMARKS
CARROLL *      SUNNY     68  68 100 SE10      30.05S
CHEROKEE *     SUNNY     71  66  83 S10       30.00S
DENISON *      SUNNY     72  64  78 S8G14     30.05S
ORANGE CITY *  SUNNY     72  66  83 S13G21    29.97F
SHELDON *      MOSUNNY   70  64  83 S15G32    29.96S
SIOUX CITY     SUNNY     73  68  84 SE10      29.97S
SPENCER        SUNNY     70  64  81 S20G25    30.00F
STORM LAKE *   SUNNY     68  64  88 S12G21    30.02S
$$

IAZ055>058-069>071-079>083-090>094-251400-
   SOUTHWEST IOWA

CITY           SKY/WX    TMP DP  RH WIND       PRES   REMARKS
ATLANTIC *     SUNNY     72  64  78 S9G16     30.06R
AUDUBON *      SUNNY     72  64  78 SE5       30.07R
CLARINDA *     SUNNY     72  66  83 S6        30.07S
COUNCIL BLFS * SUNNY     72  68  88 S9G16     30.04R
CRESTON *      SUNNY     70  68  94 SE15      30.09R
HARLAN  *      SUNNY     72  66  83 S8        30.08R
RED OAK *      SUNNY     73  66  78 S8        30.05R
SHENANDOAH *   SUNNY     73  66  78 S9        30.05R
$$

IAZ047>049-059>061-072>074-084-251400-
   CENTRAL IOWA

CITY           SKY/WX    TMP DP  RH WIND       PRES   REMARKS
AMES           MOSUNNY   68  67  96 SE8       30.09S
ANKENY *       SUNNY     68  66  94 SE8       30.10R
BOONE *        PTSUNNY   68  66  94 SE8       30.08S
CHARITON *     SUNNY     70  66  88 S8G15     30.10R
DES MOINES     MOSUNNY   71  66  84 SE12      30.09R
GRINNELL*      SUNNY     67  63  86 SE9       30.14R
KNOXVILLE *    SUNNY     68  64  88 SE9       30.10R
MARSHALLTOWN   SUNNY     66  64  93 SE13      30.11R
NEWTON *       SUNNY     66  64  94 SE9       30.12R
PELLA *          N/A     69  64  83 SE5       30.13R
$$

IAZ004>006-015-016-023>025-035-036-251400-
   NORTH CENTRAL IOWA

CITY           SKY/WX    TMP DP  RH WIND       PRES   REMARKS
ALGONA *       SUNNY     70  66  88 S16G23    30.04S
CLARION *      SUNNY     70  68  94 S13G24    30.07S
ESTHERVILLE    MOSUNNY   67  66  97 S18G25    30.00F
FORT DODGE *   MOSUNNY   70  63  78 S12       30.07S
MASON CITY     SUNNY     65  62  90 S14       30.09S
FOREST CITY *    N/A     68  64  88 S12       30.06S
WEBSTER CITY * PTSUNNY   68  64  88 SE13      30.05F
IOWA FALLS *   PTSUNNY   67  64  90 SE12      30.11S
$$

IAZ007>011-017>019-026>030-037>042-050>054-066-251400-
   NORTHEAST IOWA

CITY           SKY/WX    TMP DP  RH WIND       PRES   REMARKS
CEDAR RAPIDS   SUNNY     65  65 100 SE7       30.14
CHARLES CITY * MOSUNNY   64  64 100 S13G20    30.11R
DECORAH *      PTSUNNY   63  61  94 VRB7G14   30.12R
DUBUQUE        SUNNY     63  60  90 S9        30.17R
MONTICELLO *   SUNNY     64  61  88 SE5       30.16S
OELWEIN *        N/A    N/A N/A N/A MISG        N/A
WATERLOO       MOSUNNY   65  61  87 SE13      30.11
$$

IAZ064-065-067-068-078-251400-
   EAST CENTRAL IOWA

CITY           SKY/WX    TMP DP  RH WIND       PRES   REMARKS
DAVENPORT      SUNNY     66  62  87 SE8       30.18R
IOWA CITY      SUNNY     66  62  87 SE7       30.16
MUSCATINE *    SUNNY     66  61  82 SE6       30.16R
QUAD CITIES    SUNNY     66  61  84 E5        30.15R
$$

IAZ062-063-075>077-085>089-095>099-251400-
   SOUTHEAST IOWA

CITY           SKY/WX    TMP DP  RH WIND       PRES   REMARKS
BURLINGTON     SUNNY     67  63  87 SE8       30.13S
FAIRFIELD *    SUNNY     68  63  83 SE10      30.12S
FORT MADISON * SUNNY     66  64  94 SE5       30.15R
KEOKUK *       SUNNY     68  63  83 E10       30.13R
OSKALOOSA *      N/A     66  64  92 SE5       30.13R
OTTUMWA        SUNNY     69  65  86 SE10      30.11S
WASHINGTON *   SUNNY     66  64  94 SE6       30.15R
$$

ABBREVIATIONS USED IN REMARKS
   TC - TEMPERATURES IN CELSIUS
  WCI - WIND CHILL INDEX
   HX - HEAT INDEX
  VSB - VISIBILITY
$$





USA.gov is the U.S. government's official web portal to all federal, state and local government web resources and services.